Location: Poughquag
(41.6090°N, 73.6820°W)
Time: 09:19:07
(UTC-05:00)

Envisat - Visible Passes

Search period start: 05 February 2023 00:00
Search period end: 15 February 2023 00:00
Orbit: 763 x 765 km, 98.2° (Epoch: 05 February)

Date Brightness Start Highest point End Pass type
(mag) Time Alt. Az. Time Alt. Az. Time Alt. Az.
05 Feb 5.0 04:31:28 10° N 04:32:33 16° N 04:32:33 16° N visible
06 Feb 5.4 03:54:21 10° NNE 03:55:13 15° NNE 03:55:13 15° NNE visible
06 Feb 5.0 05:35:01 10° NNW 05:35:25 11° NNW 05:35:25 11° NNW visible
07 Feb 5.9 03:17:45 10° NNE 03:17:53 11° NE 03:17:53 11° NE visible
07 Feb 4.8 04:56:46 10° N 04:58:05 17° NNW 04:58:05 17° NNW visible
08 Feb 4.9 04:19:19 10° N 04:20:46 19° N 04:20:46 19° N visible
09 Feb 5.3 03:42:20 10° NNE 03:43:26 17° NNE 03:43:26 17° NNE visible
09 Feb 4.8 05:22:24 10° NNW 05:23:38 14° NNW 05:23:38 14° NNW visible
10 Feb 5.9 03:05:58 10° NE 03:06:06 11° NE 03:06:06 11° NE visible
10 Feb 4.6 04:44:29 10° N 04:46:18 21° NNW 04:46:18 21° NNW visible
11 Feb 4.8 04:07:11 10° NNE 04:08:59 22° NNE 04:08:59 22° NNE visible
11 Feb 5.0 05:48:56 10° NW 05:49:10 10° NW 05:49:10 10° NW visible
12 Feb 5.4 03:30:22 10° NNE 03:31:40 17° NE 03:31:40 17° NE visible
12 Feb 4.6 05:09:55 10° NNW 05:11:51 18° NNW 05:11:51 18° NNW visible
13 Feb 6.0 02:54:18 10° NE 02:54:21 10° NE 02:54:21 10° NE visible
13 Feb 4.4 04:32:15 10° N 04:34:32 26° N 04:34:32 26° N visible
14 Feb 4.7 03:55:06 10° NNE 03:57:13 25° NNE 03:57:13 25° NNE visible
14 Feb 4.8 05:35:52 10° NNW 05:37:25 14° NW 05:37:25 14° NW visible
